sat.trackr.live / text

‹ back to catalog

STARLINK-30888

NORAD 58370 · 2023-177V

PAYLOAD ACTIVE UNKNOWN

§ Identity

Operator
Country
US
Launch date
2023-11-18
Launch site
AFETR
Launch vehicle
Mass (kg)
RCS (m²)

Purposes: comms

External: N2YO · Heavens-Above · Gunter

§ Orbital elements

Epoch: 2026-05-25T01:56:18.062304Z

Period
94.27 min
Inclination
43.0053°
Eccentricity
0.0001759
Mean motion
15.27586362 rev/d
Perigee alt
481.8 km
Apogee alt
484.2 km
Semi-major
6,861.2 km
B*
1.7175e-4
RAAN
278.9034°
Arg perigee
267.4143°
Mean anomaly
92.6507°
Rev number
13,992

§ Raw data

STARLINK-308881 58370U 23177V   26145.08076461  .00004468  00000+0  17175-3 0  99982 58370  43.0053 278.9034 0001759 267.4143  92.6507 15.27586362139920

JSON: /api/v1/satellites/58370 · /tle

For live sub-satellite position, see the globe view (requires WebGL).

§ Visibility from observer

Set your observer location to see the next 7 days of passes ≥ 10°. The values pass through the URL so the page stays shareable.

No JS? Fill the form by hand. The geolocation button needs JavaScript.